NORTHEAST SUFFOLK  -  Rip Current Statement Rip Current Statement        NORTHERN NASSAU  -  Rip Current Statement Rip Current Statement        NORTHERN QUEENS  -  Rip Current Statement Rip Current Statement        NORTHWEST SUFFOLK  -  Rip Current Statement Rip Current Statement        SOUTHEAST SUFFOLK  -  Rip Current Statement Rip Current Statement        SOUTHERN NASSAU  -  Rip Current Statement Rip Current Statement        SOUTHERN QUEENS  -  Rip Current Statement Rip Current Statement        SOUTHWEST SUFFOLK  -  Rip Current Statement Rip Current Statement      

Active alerts

Northern Queens
  Details for Northern Queens Rip Current Statement
Southern Queens
  Details for Southern Queens Rip Current Statement
Northern Nassau
  Details for Northern Nassau Rip Current Statement
Southern Nassau
  Details for Southern Nassau Rip Current Statement
Northwest Suffolk
  Details for Northwest Suffolk Rip Current Statement
Southwest Suffolk
  Details for Southwest Suffolk Rip Current Statement
Northeast Suffolk
  Details for Northeast Suffolk Rip Current Statement
Southeast Suffolk
  Details for Southeast Suffolk Rip Current Statement


WXM80 ListenWXM80 Stop

You find our weather info also at:

UK Metoffice

WeatherCloud

Weather Underground

Northeastern Weather Network

AWEKAS

Citizen Weather Observer Program (CWOP)

HAMweather, WeatherForYou, PWS Weather


Weather Underground History page Text

Daily Summary for September 12, 2017 Units:  Metric    English   Both
« Previous Day
Next Day »
Daily Weekly Monthly Yearly Custom
  High: Low: Average:
Temperature: 26.8 °C 13.1 °C 19.9 °C
Dew Point: 18.9 °C 11.8 °C 15.3 °C
Humidity: 96 % 49 % 77 %
Wind Speed: 8 km/h 0 km/h 1 km/h
Wind Gust: 13 km/h - -
Wind:- - SSW
Pressure: 1017.8 hPa 1010.7 hPa -
Precipitation: 0 mm    
Historical Graphs
 
 
Tabular Data for September 12, 2017
Time Temperature Dew Point Pressure Wind Wind Speed Wind Gust Humidity Rainfall Rate (Hourly)
00:04 17.5 °C 14 °C 1017.8 hPa West 2.6 km/h 5.6 km/h 80 % 0 mm
00:09 17.6 °C 14.1 °C 1017.8 hPa Calm     80 % 0 mm
00:14 17.6 °C 14.1 °C 1017.8 hPa WNW 2.9 km/h 5.6 km/h 80 % 0 mm
00:19 17.7 °C 14.2 °C 1017.5 hPa WNW 0.5 km/h 1.9 km/h 80 % 0 mm
00:24 17.8 °C 14.3 °C 1017.5 hPa WNW 1.9 km/h 3.7 km/h 80 % 0 mm
00:30 17.8 °C 14.3 °C 1017.5 hPa WNW 0.8 km/h 3.2 km/h 80 % 0 mm
00:35 17.8 °C 14.2 °C 1017.5 hPa WNW 0.3 km/h 5.6 km/h 79 % 0 mm
00:40 17.8 °C 14.2 °C 1017.5 hPa WNW 0.6 km/h 3.7 km/h 79 % 0 mm
00:45 17.8 °C 14.2 °C 1017.5 hPa WNW 0.3 km/h 3.7 km/h 79 % 0 mm
00:50 17.8 °C 14.2 °C 1017.5 hPa WNW 0.3 km/h 1.9 km/h 79 % 0 mm
00:55 17.8 °C 14.1 °C 1017.5 hPa Calm     79 % 0 mm
01:00 17.8 °C 13.9 °C 1017.5 hPa Calm     78 % 0 mm
01:05 17.7 °C 13.8 °C 1017.5 hPa Calm   1.9 km/h 78 % 0 mm
01:10 17.7 °C 13.8 °C 1017.5 hPa Calm   1.9 km/h 78 % 0 mm
01:15 17.6 °C 13.9 °C 1017.2 hPa WNW 0.2 km/h 3.7 km/h 79 % 0 mm
01:20 17.6 °C 13.9 °C 1017.5 hPa Calm     79 % 0 mm
01:25 17.5 °C 13.8 °C 1017.2 hPa Calm     79 % 0 mm
01:30 17.4 °C 13.7 °C 1017.2 hPa Calm     79 % 0 mm
01:35 17.3 °C 13.6 °C 1017.2 hPa WNW 0.3 km/h 1.9 km/h 79 % 0 mm
01:40 17.2 °C 13.7 °C 1017.2 hPa WNW 0.3 km/h 1.9 km/h 80 % 0 mm
01:45 17.1 °C 13.6 °C 1017.2 hPa Calm   1.9 km/h 80 % 0 mm
01:50 16.9 °C 13.4 °C 1016.8 hPa Calm     80 % 0 mm
01:55 16.9 °C 13.4 °C 1017.2 hPa Calm   1.6 km/h 80 % 0 mm
02:00 16.8 °C 13.6 °C 1017.2 hPa WNW 0.2 km/h 1.9 km/h 81 % 0 mm
02:05 16.7 °C 13.4 °C 1017.2 hPa Calm   1.9 km/h 81 % 0 mm
02:10 16.7 °C 13.4 °C 1016.8 hPa Calm   1.9 km/h 81 % 0 mm
02:15 16.6 °C 13.3 °C 1016.8 hPa Calm     81 % 0 mm
02:20 16.5 °C 13.2 °C 1016.8 hPa Calm     81 % 0 mm
02:25 16.4 °C 13.3 °C 1016.8 hPa Calm     82 % 0 mm
02:30 16.3 °C 13.3 °C 1016.8 hPa Calm     82 % 0 mm
02:35 16.2 °C 13.2 °C 1016.5 hPa Calm     82 % 0 mm
02:40 16.1 °C 13.1 °C 1016.5 hPa Calm     82 % 0 mm
02:45 16 °C 12.9 °C 1016.5 hPa Calm     82 % 0 mm
02:50 15.8 °C 12.9 °C 1016.5 hPa WNW 0.5 km/h 1.9 km/h 83 % 0 mm
02:55 15.7 °C 12.8 °C 1016.5 hPa Calm     83 % 0 mm
03:00 15.6 °C 12.7 °C 1016.5 hPa Calm     83 % 0 mm
03:05 15.4 °C 12.8 °C 1016.5 hPa Calm     84 % 0 mm
03:10 15.3 °C 12.7 °C 1016.5 hPa Calm     84 % 0 mm
03:15 15.2 °C 12.5 °C 1016.5 hPa Calm     84 % 0 mm
03:20 15.1 °C 12.6 °C 1016.5 hPa Calm     85 % 0 mm
03:25 14.9 °C 12.4 °C 1016.1 hPa Calm     85 % 0 mm
03:30 14.8 °C 12.5 °C 1016.5 hPa Calm   1.9 km/h 86 % 0 mm
03:35 14.7 °C 12.4 °C 1016.5 hPa Calm     86 % 0 mm
03:40 14.7 °C 12.3 °C 1016.1 hPa Calm     86 % 0 mm
03:46 14.6 °C 12.4 °C 1016.1 hPa WNW 1 km/h 1.6 km/h 87 % 0 mm
03:51 14.4 °C 12.3 °C 1016.1 hPa Calm     87 % 0 mm
03:56 14.4 °C 12.3 °C 1016.1 hPa Calm   1.6 km/h 87 % 0 mm
04:01 14.3 °C 12.4 °C 1016.1 hPa Calm     88 % 0 mm
04:06 14.3 °C 12.3 °C 1016.1 hPa Calm   1.6 km/h 88 % 0 mm
04:11 14.2 °C 12.4 °C 1016.1 hPa Calm   1.6 km/h 89 % 0 mm
04:16 14.2 °C 12.4 °C 1016.1 hPa Calm   1.6 km/h 89 % 0 mm
04:21 14.1 °C 12.3 °C 1016.1 hPa Calm     89 % 0 mm
04:26 14.1 °C 12.3 °C 1016.1 hPa Calm     89 % 0 mm
04:31 14 °C 12.2 °C 1016.1 hPa Calm     89 % 0 mm
04:36 13.9 °C 12.3 °C 1016.1 hPa Calm   1.6 km/h 90 % 0 mm
04:41 13.9 °C 12.3 °C 1016.1 hPa Calm   1.6 km/h 90 % 0 mm
04:46 13.8 °C 12.2 °C 1016.1 hPa Calm   1.6 km/h 90 % 0 mm
04:51 13.8 °C 12.2 °C 1015.8 hPa Calm   1.6 km/h 90 % 0 mm
04:56 13.8 °C 12.3 °C 1015.8 hPa Calm   1.6 km/h 91 % 0 mm
05:01 13.8 °C 12.3 °C 1015.8 hPa NW 0.5 km/h 1.9 km/h 91 % 0 mm
05:06 13.8 °C 12.3 °C 1015.8 hPa Calm     91 % 0 mm
05:11 13.8 °C 12.5 °C 1015.8 hPa Calm     92 % 0 mm
05:16 13.7 °C 12.3 °C 1015.8 hPa NW 0.2 km/h 1.9 km/h 91 % 0 mm
05:21 13.7 °C 12.4 °C 1015.8 hPa Calm     92 % 0 mm
05:31 13.6 °C 12.3 °C 1015.8 hPa Calm     92 % 0 mm
05:36 13.6 °C 12.3 °C 1015.5 hPa Calm   1.9 km/h 92 % 0 mm
05:41 13.6 °C 12.3 °C 1015.5 hPa Calm     92 % 0 mm
05:46 13.4 °C 12.2 °C 1015.8 hPa Calm     92 % 0 mm
05:51 13.4 °C 12.2 °C 1015.5 hPa NW 0.5 km/h 1.9 km/h 92 % 0 mm
05:56 13.4 °C 12.1 °C 1015.8 hPa Calm     92 % 0 mm
05:57 13.4 °C 12.1 °C 1015.5 hPa Calm     92 % 0 mm
06:02 13.3 °C 12.1 °C 1015.5 hPa Calm     92 % 0 mm
06:07 13.3 °C 12 °C 1015.8 hPa Calm     92 % 0 mm
06:12 13.3 °C 12 °C 1015.8 hPa Calm     92 % 0 mm
06:17 13.2 °C 11.9 °C 1015.5 hPa Calm     92 % 0 mm
06:22 13.2 °C 11.9 °C 1015.8 hPa Calm     92 % 0 mm
06:27 13.2 °C 11.9 °C 1015.8 hPa Calm     92 % 0 mm
06:32 13.2 °C 11.9 °C 1015.8 hPa Calm     92 % 0 mm
06:37 13.1 °C 11.8 °C 1016.1 hPa Calm     92 % 0 mm
06:42 13.1 °C 11.8 °C 1016.1 hPa Calm     92 % 0 mm
06:48 13.1 °C 12 °C 1016.1 hPa Calm     93 % 0 mm
06:53 13.1 °C 12 °C 1016.1 hPa Calm   1.9 km/h 93 % 0 mm
06:58 13.2 °C 12.1 °C 1016.1 hPa Calm     93 % 0 mm
07:03 13.2 °C 12.1 °C 1015.8 hPa Calm   1.9 km/h 93 % 0 mm
07:08 13.3 °C 12.3 °C 1015.8 hPa Calm     94 % 0 mm
07:13 13.3 °C 12.4 °C 1016.1 hPa Calm     94 % 0 mm
07:18 13.4 °C 12.4 °C 1015.8 hPa Calm     94 % 0 mm
07:23 13.4 °C 12.7 °C 1016.1 hPa Calm     95 % 0 mm
07:28 13.6 °C 12.8 °C 1016.1 hPa Calm     95 % 0 mm
07:33 13.6 °C 12.8 °C 1015.8 hPa Calm     95 % 0 mm
07:38 13.7 °C 12.9 °C 1015.8 hPa Calm     95 % 0 mm
07:43 13.8 °C 13 °C 1015.8 hPa Calm   1.9 km/h 95 % 0 mm
07:48 13.9 °C 13.1 °C 1015.8 hPa Calm     95 % 0 mm
07:53 14.1 °C 13.3 °C 1015.5 hPa Calm     95 % 0 mm
07:58 14.2 °C 13.4 °C 1015.8 hPa Calm     95 % 0 mm
08:03 14.3 °C 13.7 °C 1015.8 hPa Calm     96 % 0 mm
08:08 14.5 °C 13.9 °C 1015.5 hPa Calm     96 % 0 mm
08:13 14.7 °C 14.1 °C 1015.5 hPa NNW 0.8 km/h 3.7 km/h 96 % 0 mm
08:18 14.8 °C 14.2 °C 1015.1 hPa North 1.3 km/h 5.6 km/h 96 % 0 mm
08:24 15.1 °C 14.4 °C 1015.5 hPa North 0.6 km/h 1.9 km/h 96 % 0 mm
08:29 15.2 °C 14.6 °C 1015.1 hPa Calm   1.9 km/h 96 % 0 mm
08:34 15.3 °C 14.7 °C 1015.1 hPa North 1 km/h 3.7 km/h 96 % 0 mm
08:39 15.5 °C 14.9 °C 1015.1 hPa North 0.3 km/h 1.9 km/h 96 % 0 mm
08:44 15.7 °C 15.1 °C 1015.1 hPa Calm     96 % 0 mm
08:49 15.8 °C 15 °C 1015.1 hPa North 1.3 km/h 3.7 km/h 95 % 0 mm
08:54 16 °C 15.2 °C 1015.1 hPa Calm     95 % 0 mm
08:59 16.2 °C 15.3 °C 1015.1 hPa NE 0.8 km/h 3.2 km/h 94 % 0 mm
09:04 16.4 °C 15.5 °C 1015.1 hPa NE 0.6 km/h 3.7 km/h 94 % 0 mm
09:09 16.7 °C 15.6 °C 1015.5 hPa Calm     93 % 0 mm
09:14 16.8 °C 15.5 °C 1015.5 hPa NE 1 km/h 3.7 km/h 92 % 0 mm
09:19 17.1 °C 15.6 °C 1015.5 hPa NE 1.6 km/h 5.6 km/h 91 % 0 mm
09:24 17.3 °C 15.5 °C 1015.5 hPa North 2.7 km/h 5.6 km/h 89 % 0 mm
09:29 17.6 °C 15.6 °C 1015.5 hPa North 2.7 km/h 5.6 km/h 88 % 0 mm
09:34 17.8 °C 15.6 °C 1015.5 hPa North 2.9 km/h 4.8 km/h 87 % 0 mm
09:39 17.9 °C 15.6 °C 1015.5 hPa NNE 1.1 km/h 3.7 km/h 86 % 0 mm
09:45 18.2 °C 15.8 °C 1015.5 hPa North 2.9 km/h 5.6 km/h 86 % 0 mm
09:50 18.4 °C 15.6 °C 1015.5 hPa NE 1.1 km/h 5.6 km/h 84 % 0 mm
09:55 18.7 °C 15.7 °C 1015.5 hPa NE 2.9 km/h 5.6 km/h 83 % 0 mm
10:00 18.9 °C 15.7 °C 1015.5 hPa NE 0.2 km/h 1.9 km/h 82 % 0 mm
10:05 19.1 °C 15.9 °C 1015.5 hPa NE 0.6 km/h 1.6 km/h 82 % 0 mm
10:10 19.3 °C 15.8 °C 1015.5 hPa NE 0.5 km/h 5.6 km/h 80 % 0 mm
10:15 19.5 °C 15.8 °C 1015.5 hPa Calm     79 % 0 mm
10:20 19.6 °C 15.9 °C 1015.5 hPa NNE 1.6 km/h 3.7 km/h 79 % 0 mm
10:25 19.7 °C 16 °C 1015.5 hPa Calm     79 % 0 mm
10:30 19.8 °C 15.9 °C 1015.5 hPa NNE 0.5 km/h 3.7 km/h 78 % 0 mm
10:35 20 °C 15.8 °C 1015.5 hPa Calm     77 % 0 mm
10:40 20.1 °C 15.9 °C 1015.5 hPa NNE 2.3 km/h 5.6 km/h 77 % 0 mm
10:45 20.3 °C 16.4 °C 1015.5 hPa NNE 0.2 km/h 1.9 km/h 78 % 0 mm
10:50 20.5 °C 16.3 °C 1015.5 hPa North 2.6 km/h 5.6 km/h 77 % 0 mm
10:55 20.7 °C 16.6 °C 1015.1 hPa NW 2.1 km/h 3.2 km/h 77 % 0 mm
11:00 20.8 °C 16.2 °C 1015.1 hPa Calm   1.9 km/h 75 % 0 mm
11:06 21 °C 16.2 °C 1015.1 hPa Calm   3.2 km/h 74 % 0 mm
11:11 21.2 °C 16.6 °C 1015.5 hPa NNW 1 km/h 3.7 km/h 75 % 0 mm
11:16 21.6 °C 16.9 °C 1015.5 hPa North 1.6 km/h 6.4 km/h 75 % 0 mm
11:21 21.9 °C 16.9 °C 1015.5 hPa NNE 1.6 km/h 4.8 km/h 73 % 0 mm
11:26 22.3 °C 16.6 °C 1015.1 hPa North 1.6 km/h 8 km/h 70 % 0 mm
11:31 22.8 °C 17.3 °C 1015.1 hPa North 1.6 km/h 3.2 km/h 71 % 0 mm
11:36 23.3 °C 17.2 °C 1015.1 hPa North 1.6 km/h 6.4 km/h 69 % 0 mm
11:41 23.7 °C 17.2 °C 1015.1 hPa North 0.5 km/h 1.9 km/h 67 % 0 mm
11:46 23.9 °C 17.1 °C 1015.1 hPa Calm   4.8 km/h 66 % 0 mm
11:51 24.1 °C 16.1 °C 1015.1 hPa NNW 1 km/h 3.7 km/h 61 % 0 mm
11:56 24.3 °C 16 °C 1015.1 hPa Calm   1.9 km/h 60 % 0 mm
12:01 24.4 °C 15.9 °C 1015.1 hPa NNW 0.5 km/h 3.7 km/h 59 % 0 mm
12:06 24.8 °C 16.5 °C 1015.1 hPa NNE 1.6 km/h 3.7 km/h 60 % 0 mm
12:11 25 °C 16.9 °C 1014.8 hPa Calm   1.9 km/h 61 % 0 mm
12:16 25.3 °C 16.9 °C 1014.8 hPa NNE 2.9 km/h 5.6 km/h 60 % 0 mm
12:21 25.6 °C 17.6 °C 1014.4 hPa North 4.2 km/h 7.4 km/h 61 % 0 mm
12:26 25.9 °C 16.7 °C 1014.8 hPa NE 1.9 km/h 5.6 km/h 57 % 0 mm
12:31 26 °C 15.9 °C 1014.4 hPa North 0.3 km/h 3.7 km/h 54 % 0 mm
12:36 26.3 °C 17.9 °C 1014.4 hPa NNE 3.4 km/h 5.6 km/h 60 % 0 mm
12:41 26.6 °C 16.5 °C 1014.4 hPa North 5.6 km/h 6.4 km/h 54 % 0 mm
12:46 26.7 °C 16.6 °C 1014.1 hPa North 5.8 km/h 7.4 km/h 54 % 0 mm
12:52 26.6 °C 15.3 °C 1014.1 hPa NNE 2.6 km/h 5.6 km/h 50 % 0 mm
12:57 26.6 °C 15.9 °C 1014.1 hPa NNE 0.3 km/h 3.7 km/h 52 % 0 mm
13:02 26.6 °C 15.3 °C 1014.1 hPa NNW 0.3 km/h 1.9 km/h 50 % 0 mm
13:07 26.6 °C 15.7 °C 1014.1 hPa North 1.9 km/h 3.7 km/h 51 % 0 mm
13:12 26.6 °C 15 °C 1014.1 hPa NNW 1.4 km/h 3.7 km/h 49 % 0 mm
13:17 26.6 °C 14.9 °C 1013.8 hPa North 1 km/h 3.7 km/h 49 % 0 mm
13:22 26.6 °C 16.2 °C 1014.1 hPa North 3.9 km/h 5.6 km/h 53 % 0 mm
13:27 26.4 °C 15.8 °C 1013.8 hPa NNW 1.3 km/h 5.6 km/h 52 % 0 mm
13:32 26.4 °C 17.2 °C 1013.8 hPa North 1.1 km/h 6.4 km/h 57 % 0 mm
13:37 26.2 °C 16.7 °C 1013.8 hPa North 3.5 km/h 5.6 km/h 56 % 0 mm
13:42 26.2 °C 17.1 °C 1013.8 hPa North 0.8 km/h 3.7 km/h 57 % 0 mm
13:47 26.3 °C 17.1 °C 1013.8 hPa North 3.5 km/h 6.4 km/h 57 % 0 mm
13:52 26.2 °C 17.3 °C 1013.8 hPa NNE 3.2 km/h 5.6 km/h 58 % 0 mm
13:57 26.2 °C 17.3 °C 1013.8 hPa Calm   3.7 km/h 58 % 0 mm
14:02 26.3 °C 16.8 °C 1013.4 hPa WNW 3.7 km/h 5.6 km/h 56 % 0 mm
14:07 26.3 °C 17.7 °C 1013.4 hPa NW 1.8 km/h 6.4 km/h 59 % 0 mm
14:12 26.4 °C 18 °C 1013.4 hPa North 3.9 km/h 7.4 km/h 60 % 0 mm
14:17 26.3 °C 18.4 °C 1013.1 hPa NNW 5 km/h 7.4 km/h 62 % 0 mm
14:22 26.2 °C 18.4 °C 1013.1 hPa NNW 3.1 km/h 5.6 km/h 62 % 0 mm
14:27 26.1 °C 18.7 °C 1013.1 hPa North 1.8 km/h 4.8 km/h 64 % 0 mm
14:32 26.1 °C 18.7 °C 1013.1 hPa North 3.5 km/h 6.4 km/h 64 % 0 mm
14:37 26.1 °C 18.9 °C 1013.1 hPa North 1.1 km/h 4.8 km/h 65 % 0 mm
14:42 26.1 °C 18.8 °C 1013.1 hPa NE 2.6 km/h 5.6 km/h 64 % 0 mm
14:47 26.2 °C 18.8 °C 1012.8 hPa NNE 2.9 km/h 5.6 km/h 64 % 0 mm
14:48 26.2 °C 18.8 °C 1012.8 hPa NNE 1.6 km/h 5.6 km/h 64 % 0 mm
14:53 26.2 °C 18.6 °C 1012.8 hPa NW 1.8 km/h 5.6 km/h 63 % 0 mm
14:58 26.2 °C 18.9 °C 1012.8 hPa NW 0.2 km/h 3.7 km/h 64 % 0 mm
15:03 26.3 °C 18.4 °C 1012.8 hPa WNW 4 km/h 6.4 km/h 62 % 0 mm
15:08 26.3 °C 18.4 °C 1012.8 hPa WNW 0.6 km/h 3.7 km/h 62 % 0 mm
15:13 26.4 °C 18.3 °C 1012.8 hPa West 2.4 km/h 5.6 km/h 61 % 0 mm
15:18 26.5 °C 18.1 °C 1012.8 hPa WNW 2.6 km/h 5.6 km/h 60 % 0 mm
15:23 26.6 °C 17.9 °C 1012.8 hPa WNW 3.4 km/h 6.4 km/h 59 % 0 mm
15:28 26.6 °C 18.2 °C 1012.8 hPa WSW 5.5 km/h 9.3 km/h 60 % 0 mm
15:33 26.7 °C 17.7 °C 1012.4 hPa WSW 2.6 km/h 7.4 km/h 58 % 0 mm
15:38 26.7 °C 18.1 °C 1012.4 hPa West 3.1 km/h 5.6 km/h 59 % 0 mm
15:43 26.7 °C 17.8 °C 1012.4 hPa West 3.4 km/h 6.4 km/h 58 % 0 mm
15:48 26.8 °C 17.6 °C 1012.4 hPa WSW 8 km/h 13 km/h 57 % 0 mm
15:53 26.8 °C 17.9 °C 1012.4 hPa SW 2.7 km/h 9.3 km/h 58 % 0 mm
15:58 26.8 °C 17.3 °C 1012.4 hPa SW 5.1 km/h 11.3 km/h 56 % 0 mm
16:03 26.8 °C 17.3 °C 1012.4 hPa WSW 1.9 km/h 5.6 km/h 56 % 0 mm
16:08 26.8 °C 16.7 °C 1012.4 hPa West 5.1 km/h 5.6 km/h 54 % 0 mm
16:13 26.8 °C 16.4 °C 1012.1 hPa WSW 3.9 km/h 11.1 km/h 53 % 0 mm
16:18 26.8 °C 16.2 °C 1012.1 hPa WSW 3.9 km/h 8 km/h 52 % 0 mm
16:23 26.8 °C 16.2 °C 1012.1 hPa SW 4 km/h 11.1 km/h 52 % 0 mm
16:28 26.8 °C 15.8 °C 1012.1 hPa SW 3.1 km/h 9.3 km/h 51 % 0 mm
16:33 26.8 °C 16.2 °C 1012.1 hPa SW 2.6 km/h 9.7 km/h 52 % 0 mm
16:38 26.8 °C 16.4 °C 1012.1 hPa West 6.1 km/h 11.3 km/h 53 % 0 mm
16:43 26.8 °C 16.1 °C 1012.1 hPa SW 1 km/h 3.7 km/h 52 % 0 mm
16:48 26.7 °C 16.3 °C 1011.7 hPa WSW 0.6 km/h 5.6 km/h 53 % 0 mm
16:53 26.7 °C 16 °C 1011.7 hPa WSW 3.2 km/h 7.4 km/h 52 % 0 mm
16:59 26.6 °C 16.2 °C 1011.7 hPa WSW 2.7 km/h 5.6 km/h 53 % 0 mm
17:04 26.6 °C 16.8 °C 1011.7 hPa Calm   1.9 km/h 55 % 0 mm
17:09 26.5 °C 16.2 °C 1011.7 hPa West 4.7 km/h 7.4 km/h 53 % 0 mm
17:14 26.5 °C 16.7 °C 1011.7 hPa West 0.2 km/h 1.9 km/h 55 % 0 mm
17:19 26.4 °C 16.9 °C 1011.7 hPa West 0.5 km/h 1.9 km/h 56 % 0 mm
17:24 26.3 °C 17.1 °C 1011.7 hPa West 0.8 km/h 3.7 km/h 57 % 0 mm
17:29 26.2 °C 16.7 °C 1011.7 hPa West 1.6 km/h 5.6 km/h 56 % 0 mm
17:34 26.2 °C 16.7 °C 1011.4 hPa Calm     56 % 0 mm
17:39 26.1 °C 16.9 °C 1011.4 hPa Calm     57 % 0 mm
17:44 25.9 °C 16.8 °C 1011.7 hPa WNW 0.2 km/h 1.9 km/h 57 % 0 mm
17:49 25.8 °C 16.9 °C 1011.7 hPa Calm   1.9 km/h 58 % 0 mm
17:54 25.7 °C 17.1 °C 1011.7 hPa Calm     59 % 0 mm
17:59 25.6 °C 17.3 °C 1011.4 hPa Calm     60 % 0 mm
18:04 25.5 °C 17.9 °C 1011.4 hPa Calm     63 % 0 mm
18:09 25.3 °C 17.8 °C 1011.4 hPa Calm     63 % 0 mm
18:14 25.2 °C 17.6 °C 1011.4 hPa Calm     63 % 0 mm
18:19 25.1 °C 18 °C 1011.4 hPa Calm     65 % 0 mm
18:24 24.8 °C 18.3 °C 1011.4 hPa Calm     67 % 0 mm
18:29 24.7 °C 18.4 °C 1011.4 hPa Calm     68 % 0 mm
18:35 24.4 °C 18.2 °C 1011.4 hPa Calm     68 % 0 mm
18:40 24.2 °C 17.9 °C 1011.4 hPa Calm     68 % 0 mm
18:45 23.9 °C 17.8 °C 1011.1 hPa Calm     69 % 0 mm
18:50 23.7 °C 17.7 °C 1011.1 hPa Calm     69 % 0 mm
18:55 23.4 °C 17.7 °C 1011.1 hPa Calm     70 % 0 mm
19:00 23.3 °C 17.7 °C 1011.1 hPa Calm     71 % 0 mm
19:05 23.1 °C 17.7 °C 1011.1 hPa Calm     72 % 0 mm
19:10 22.8 °C 17.5 °C 1011.1 hPa Calm     72 % 0 mm
19:15 22.6 °C 17.5 °C 1011.1 hPa Calm     73 % 0 mm
19:20 22.4 °C 17.5 °C 1011.1 hPa Calm     74 % 0 mm
19:25 22.1 °C 17.3 °C 1011.1 hPa Calm     74 % 0 mm
19:31 21.9 °C 17.1 °C 1011.1 hPa Calm     74 % 0 mm
19:36 21.8 °C 16.9 °C 1011.1 hPa Calm     74 % 0 mm
19:41 21.6 °C 16.9 °C 1011.1 hPa Calm     75 % 0 mm
19:46 21.4 °C 16.8 °C 1011.1 hPa Calm     75 % 0 mm
19:51 21.2 °C 16.8 °C 1011.1 hPa Calm     76 % 0 mm
19:53 21.1 °C 16.7 °C 1011.1 hPa Calm     76 % 0 mm
19:58 20.9 °C 16.6 °C 1011.1 hPa Calm     76 % 0 mm
20:03 20.8 °C 16.8 °C 1011.1 hPa Calm     78 % 0 mm
20:08 20.6 °C 16.6 °C 1011.1 hPa Calm     78 % 0 mm
20:14 20.4 °C 16.5 °C 1011.1 hPa Calm     78 % 0 mm
20:19 20.3 °C 16.3 °C 1011.1 hPa Calm     78 % 0 mm
20:24 20.2 °C 16.2 °C 1011.1 hPa Calm     78 % 0 mm
20:29 20 °C 16.1 °C 1011.4 hPa WNW 0.2 km/h 1.9 km/h 78 % 0 mm
20:34 19.9 °C 16.1 °C 1011.1 hPa Calm     79 % 0 mm
20:39 19.8 °C 16.1 °C 1011.4 hPa WNW 0.2 km/h 3.2 km/h 79 % 0 mm
20:44 19.6 °C 16.1 °C 1011.1 hPa Calm   1.6 km/h 80 % 0 mm
20:54 19.4 °C 16.1 °C 1011.1 hPa Calm   1.9 km/h 81 % 0 mm
20:59 19.4 °C 16.1 °C 1011.1 hPa Calm     81 % 0 mm
21:04 19.3 °C 16 °C 1011.1 hPa Calm     81 % 0 mm
21:09 19.3 °C 16 °C 1011.1 hPa SE 0.6 km/h 3.7 km/h 81 % 0 mm
21:14 19.3 °C 15.9 °C 1011.4 hPa Calm   1.6 km/h 81 % 0 mm
21:19 19.3 °C 15.9 °C 1011.1 hPa WNW 1 km/h 1.9 km/h 81 % 0 mm
21:24 19.3 °C 15.9 °C 1011.1 hPa SW 0.6 km/h 5.6 km/h 81 % 0 mm
21:29 19.3 °C 15.9 °C 1011.1 hPa Calm   3.7 km/h 81 % 0 mm
21:34 19.2 °C 15.9 °C 1011.1 hPa Calm     81 % 0 mm
21:39 19.2 °C 15.9 °C 1011.1 hPa Calm     81 % 0 mm
21:44 19.2 °C 15.9 °C 1011.1 hPa Calm     81 % 0 mm
21:49 19.2 °C 15.8 °C 1011.1 hPa Calm     81 % 0 mm
21:53 19.2 °C 15.8 °C 1011.1 hPa Calm     81 % 0 mm
21:58 19.1 °C 15.9 °C 1011.1 hPa Calm   3.7 km/h 82 % 0 mm
22:03 19.1 °C 15.9 °C 1011.1 hPa Calm     82 % 0 mm
22:08 19.1 °C 15.9 °C 1011.1 hPa WNW 0.5 km/h 1.9 km/h 82 % 0 mm
22:13 19 °C 16.1 °C 1011.1 hPa WSW 1.8 km/h 3.7 km/h 83 % 0 mm
22:18 18.9 °C 16 °C 1011.1 hPa WSW 3.2 km/h 5.6 km/h 83 % 0 mm
22:23 18.9 °C 16.2 °C 1011.1 hPa WSW 1 km/h 3.7 km/h 84 % 0 mm
22:28 18.9 °C 16.2 °C 1011.1 hPa Calm   1.9 km/h 84 % 0 mm
22:33 18.9 °C 16.2 °C 1011.1 hPa WSW 2.1 km/h 3.7 km/h 84 % 0 mm
22:38 18.9 °C 16.2 °C 1011.1 hPa WSW 0.8 km/h 1.9 km/h 84 % 0 mm
22:43 18.9 °C 16.1 °C 1011.1 hPa WSW 1 km/h 3.7 km/h 84 % 0 mm
22:48 18.9 °C 16.3 °C 1011.1 hPa WSW 1.4 km/h 5.6 km/h 85 % 0 mm
22:53 18.8 °C 16.3 °C 1011.1 hPa WSW 1.6 km/h 3.7 km/h 85 % 0 mm
22:58 18.8 °C 16.3 °C 1011.1 hPa WSW 2.6 km/h 3.7 km/h 85 % 0 mm
23:03 18.8 °C 16.2 °C 1011.1 hPa WSW 2.7 km/h 3.7 km/h 85 % 0 mm
23:08 18.8 °C 16.2 °C 1011.1 hPa WSW 2.4 km/h 5.6 km/h 85 % 0 mm
23:14 18.7 °C 16.2 °C 1011.1 hPa WSW 2.7 km/h 5.6 km/h 85 % 0 mm
23:19 18.7 °C 16.3 °C 1011.1 hPa WSW 1 km/h 3.7 km/h 86 % 0 mm
23:26 18.7 °C 16.3 °C 1011.1 hPa West 1.6 km/h 5.6 km/h 86 % 0 mm
23:31 18.7 °C 16.3 °C 1010.7 hPa Calm   1.9 km/h 86 % 0 mm
23:36 18.6 °C 16.2 °C 1011.1 hPa WSW 2.3 km/h 4.8 km/h 86 % 0 mm
23:41 18.6 °C 16.2 °C 1011.1 hPa WSW 2.6 km/h 5.6 km/h 86 % 0 mm
23:46 18.6 °C 16.2 °C 1011.1 hPa WSW 0.6 km/h 1.9 km/h 86 % 0 mm
23:51 18.6 °C 16.2 °C 1011.1 hPa WSW 2.3 km/h 3.7 km/h 86 % 0 mm
23:56 18.6 °C 16.2 °C 1011.1 hPa WSW 1.6 km/h 3.7 km/h 86 % 0 mm
Crab Meadow Weather
Compliments of Weather Underground - 3 mb

Script developed by  Jim McMurry - jmcmurry@mwt.net Adapted for the template by  Wim van der Kuil - Leuven-Template.eu

Astronomy: The light of the Sun takes 8 minutes to reach Earth.